STARLINK-30185 (57459 NORAD) Tracking and Keplerian Element Data

This shows tracking and keplerian element data for the satellite.

Feedback or suggestion? Click here.




ElementValue
Catalog57459
NameSTARLINK-30185
Epoch Orbit2677
Epoch Day13.13917899
Epoch Year2024
RAAN293.0445
Inclination43.0029
Eccentricity8.93E-05
Argument of Perigee254.7589
Mean Anonmoly105.3154
Mean Motion15.02536298
Decay Rate2.656E-05
L11 57459U 23107C 24013.13917899 .00002656 00000+0 21164-3 0 9995
L22 57459 43.0029 293.0445 0000893 254.7589 105.3154 15.02536298 26779



Live tracking and technical data element details for STARLINK-30185 (NORAD 57459). STARLINK-30185 can be tracked NOW for your location showing map with azimuth and elevation plus other details from your city location.







IsCatalogInMostPopularTable: catalog: 57459, numindb: 5
Update: records affected: 1



GetName: 57459 STARLINK-30185

Hit Count: updated at: Thu, 22 Feb 2024 00:48:30 GMT